SCP
0 0 0 0 0 0 0 0 0 0 0 0 0 0 0 0 0 0 0 0 0 0 0 0 0 0 0 0 0 0 0 0 0 0 -0 -0 0 -0 0 0 0 0 0
0 0 0 0 0 0 0 0 1 1 0 0 0 0 0 0 0 0 0 0 0 0 0 0 0 0 0 0 0 0 0 0 0 0 0 0 -0 -0 -0 0 0 0 0
0 0 0 0 0 0 0 0 0 0 0 0 0 0 0 0 0 0 0 0 0 0 0 0 0 0 0 0 0 0 0 0 0 0 0 0 0 0 0 0 0 0 0
0 0 1 1 0 0 0 0 0 0 0 0 0 0 0 0 0 0 0 0 0 0 0 0 0 0 0 0 0 0 0 0 0 0 0 0 0 0 0 0 0 0 0
0 1 2 1 0 0 0 0 0 0 -0 0 0 0 0 0 0 0 0 0 0 0 0 0 0 0 0 0 0 0 0 0 0 0 0 0 0 0 0 0 0 0 0
1 2 2 1 0 0 0 0 0 -0 0 0 0 0 0 0 0 0 0 0 0 0 0 0 0 0 0 0 0 0 0 0 0 0 0 0 0 0 0 0 0 0 0
2 2 2 0 1 0 0 0 0 0 0 0 0 0 0 0 0 0 0 0 0 0 0 0 0 0 0 0 0 0 0 0 0 0 0 0 0 0 0 0 0 0 0
2 0 0 0 0 0 0 0 -0 0 0 0 0 0 0 0 0 0 0 0 0 0 0 0 0 0 0 0 0 0 0 0 0 0 0 0 0 0 0 0 0 0 0
2 1 1 0 0 0 0 0 0 0 0 0 0 0 0 0 0 0 0 0 0 0 0 0 0 0 0 0 0 0 0 0 0 0 0 0 0 0 0 0 0 0 0
2 1 1 0 0 0 0 0 0 0 0 0 0 0 0 0 0 0 0 0 0 0 0 0 0 0 0 0 0 0 0 0 0 0 0 0 0 0 0 0 0 0 0
2 1 0 0 0 0 0 0 0 0 0 0 0 0 0 0 0 0 0 0 0 0 0 0 0 0 0 0 0 0 0 0 0 0 0 0 0 0 0 0 0 0 0
0 0 0 0 0 0 0 0 0 0 0 0 0 0 0 0 0 0 0 0 0 0 0 0 0 0 0 0 0 0 0 0 0 0 0 0 0 0 0 0 0 0 0
0 0 0 0 0 0 0 0 0 0 0 0 0 0 0 0 0 0 0 0 0 0 0 0 0 0 0 0 0 0 0 0 0 0 0 0 0 0 0 0 0 0 0
0 0 0 0 0 0 0 0 0 0 0 0 0 0 0 0 0 0 0 0 0 0 0 0 0 0 0 0 0 0 0 0 0 0 0 0 0 0 0 0 0 0 0
0 0 0 0 0 0 0 0 0 0 0 0 0 0 0 0 0 0 0 0 0 0 0 0 0 0 0 0 0 0 0 0 0 0 0 0 0 0 0 0 0 0 0
0 0 0 0 0 0 0 0 0 0 0 0 0 0 0 0 0 0 0 0 0 0 0 0 0 0 0 0 0 0 0 0 0 0 0 0 0 0 0 0 0 0 0
0 0 0 0 0 0 0 0 0 0 0 0 0 0 0 0 0 0 0 0 0 0 0 0 0 0 0 0 0 0 0 0 0 0 0 0 0 0 0 0 0 0 0
0 0 0 0 0 0 0 0 0 0 0 0 0 0 0 0 0 0 0 0 0 0 0 0 0 0 0 0 0 0 0 0 0 0 0 0 0 0 0 0 0 0 0
0 0 0 0 0 0 0 0 0 0 0 0 0 0 0 0 0 0 0 0 0 0 0 0 0 0 0 0 0 0 0 0 0 0 0 0 0 0 0 0 -0 0 0
0 0 0 0 0 0 0 0 0 0 0 0 0 0 0 0 0 0 0 0 0 0 0 0 0 0 0 0 0 0 0 0 0 0 0 0 0 0 -0 -0 0 0 0
0 0 0 0 0 0 0 0 0 0 0 0 0 0 0 0 0 0 0 0 0 0 0 0 0 0 0 0 0 0 0 0 0 0 0 0 0 0 0 0 -0 0 0
0 0 0 0 0 0 0 0 0 0 0 0 0 0 0 0 0 0 0 0 0 0 0 0 0 0 0 0 0 0 0 0 0 0 0 0 0 0 0 0 0 0 0
0 0 0 0 0 0 0 0 0 0 0 0 0 0 0 0 0 0 0 0 0 0 0 0 0 0 0 0 0 0 0 0 0 0 0 0 0 0 0 0 0 0 0
0 0 0 0 0 0 0 0 0 0 0 0 0 0 0 0 0 0 0 0 0 0 0 0 0 0 0 0 0 0 0 0 -0 -0 0 0 0 0 0 0 0 0 0
0 0 0 0 0 0 0 0 0 0 0 0 0 0 0 0 0 0 0 0 0 0 0 0 0 0 0 0 0 0 0 -0 -0 0 0 0 -0 0 0 0 0 0 0
0 0 0 0 0 0 0 0 0 0 0 0 0 0 0 0 0 0 0 0 0 0 0 0 0 0 -0 -0 -0 0 -0 -0 0 0 0 0 0 0 0 0 0 0 0
Wind_Speed_500mb
41 37 34 32 31 31 32 33 35 36 37 37 35 35 37 39 41 44 48 51 51 49 46 40 33 32 42 32 32 34 36 34 34 25 19 24 28 34 32 31 29 27 29
45 41 37 32 27 27 33 37 38 40 43 40 38 38 39 40 44 46 50 52 48 42 39 38 35 31 36 34 31 37 39 37 34 30 25 29 26 35 31 33 31 32 36
45 41 39 37 31 19 31 37 39 41 43 40 39 40 42 43 44 48 51 50 43 34 26 26 27 28 30 36 35 41 43 37 39 38 33 32 31 34 37 41 44 42 44
44 43 47 43 42 47 58 42 26 42 49 45 44 41 44 44 45 49 47 43 37 27 22 26 33 30 32 31 36 39 40 40 39 35 30 33 35 37 42 51 41 45 48
50 53 57 58 54 51 43 29 63 55 50 50 46 46 43 44 46 44 41 34 29 27 19 22 26 31 35 39 40 41 38 36 35 27 29 29 34 49 46 47 46 51 51
61 63 66 64 56 45 34 31 32 52 61 50 48 44 44 45 43 36 27 28 24 22 23 24 26 28 33 33 36 40 43 41 38 38 35 34 45 46 40 49 51 57 52
68 72 70 62 51 41 31 37 46 55 52 52 46 44 42 40 30 25 26 20 21 22 21 20 15 21 20 35 39 41 44 47 42 37 37 45 46 52 51 39 46 49 46
68 73 75 68 58 59 17 19 47 44 58 47 36 34 19 20 28 28 22 19 20 22 19 17 19 29 31 32 39 51 56 58 54 43 39 38 42 44 47 43 40 51 52
66 71 69 62 55 44 20 27 50 50 45 37 36 27 15 14 12 23 22 16 18 16 19 22 24 25 31 33 32 35 38 39 42 44 43 42 41 43 46 50 54 53 49
58 63 67 59 56 45 30 60 41 45 35 35 38 37 36 30 15 15 17 18 20 20 23 25 27 31 38 34 35 39 41 46 42 35 44 47 46 47 43 41 47 52 51
50 62 63 54 56 58 55 46 46 30 30 33 31 34 32 29 27 25 26 22 23 26 29 35 33 37 36 41 38 41 46 41 46 44 47 52 57 53 43 42 46 47 55
58 71 76 70 53 42 27 22 21 26 28 28 30 28 23 16 19 23 26 30 35 36 33 36 37 37 37 40 42 47 48 46 45 45 48 53 54 52 42 45 44 47 50
75 78 64 47 34 30 17 19 24 25 27 26 23 22 21 21 22 26 30 36 40 38 37 40 40 39 44 42 43 41 44 47 45 48 44 46 48 48 42 42 39 43 45
47 39 34 31 28 21 21 22 25 25 23 21 20 21 21 22 25 27 33 38 47 48 41 46 45 46 41 39 39 45 36 45 47 48 46 45 45 45 45 45 43 40 44
34 28 26 26 23 22 19 21 23 23 23 24 24 28 32 31 32 34 34 39 45 48 53 48 44 41 37 37 40 40 39 43 59 50 48 43 43 42 44 41 44 41 40
28 29 28 24 15 17 19 21 21 23 27 27 30 34 33 35 35 38 43 46 50 55 59 49 51 48 42 38 42 41 42 55 45 48 43 40 40 43 49 49 45 47 43
20 18 20 9 11 17 19 19 19 22 25 26 29 34 34 32 38 39 43 50 57 53 55 57 55 51 42 49 42 43 47 41 43 38 35 33 37 43 50 53 50 55 50
3 8 8 9 11 12 14 17 20 23 25 26 25 28 31 30 40 42 47 56 55 61 67 68 73 57 56 50 49 54 47 42 42 28 40 35 34 41 46 44 41 39 37
7 9 9 7 6 8 14 19 19 19 17 22 27 33 41 47 56 57 62 64 66 65 59 65 64 62 56 55 60 69 42 30 31 29 35 34 35 33 31 30 30 33 30
9 10 7 3 4 11 16 17 17 22 27 32 39 42 44 47 48 48 51 55 45 50 58 64 67 72 69 60 53 39 26 26 25 25 29 30 29 29 25 24 28 31 25
7 7 2 5 9 15 16 16 24 31 36 39 39 37 44 48 48 52 53 50 60 57 53 47 44 42 41 40 32 23 29 28 28 28 27 25 22 20 19 20 22 14 12
5 2 6 11 15 15 17 24 32 35 36 37 41 47 54 56 59 57 58 53 43 41 41 40 39 39 31 26 25 22 24 19 23 20 31 24 16 13 12 15 18 12 13
6 7 12 14 14 21 26 33 36 38 40 45 52 57 55 48 52 43 35 33 31 34 29 30 30 27 27 34 33 35 32 25 21 19 33 15 9 11 12 15 14 9 13
10 14 11 16 21 27 33 37 38 41 48 54 58 53 43 38 31 37 36 34 30 29 28 26 25 30 30 28 28 27 24 22 19 24 17 11 8 12 7 10 14 8 12
15 9 14 20 25 29 34 37 42 50 54 52 40 33 30 28 34 38 34 31 32 27 26 21 24 25 22 16 17 17 16 12 11 14 10 6 10 13 3 6 13 17 20
10 14 19 22 25 31 39 48 55 49 40 39 32 22 29 32 36 34 30 28 31 28 26 23 13 15 10 7 6 2 8 4 8 7 3 7 10 20 13 10 14 17 27
Wind_Direction_500mb
249 249 250 246 242 252 262 266 269 274 277 276 277 277 283 291 297 301 302 303 304 300 293 282 268 260 258 268 269 270 274 281 292 292 304 307 310 329 322 327 321 310 288
252 253 251 246 246 262 271 275 275 278 277 272 271 275 283 290 297 299 301 303 303 297 289 280 269 255 252 260 266 265 269 273 284 286 285 297 287 322 314 305 300 307 314
251 251 247 242 245 251 287 278 279 280 279 265 271 279 284 290 292 297 303 304 305 307 294 270 248 253 246 258 263 263 265 271 279 282 284 293 294 305 297 307 297 297 299
251 249 245 237 248 258 258 283 280 296 277 270 273 279 282 288 293 300 300 299 302 306 301 262 255 254 239 250 258 268 276 276 282 281 289 289 292 286 293 296 296 295 293
253 253 250 244 235 243 247 263 293 244 278 275 275 277 283 286 292 295 293 292 296 295 279 261 253 248 247 250 258 265 269 276 274 264 266 272 282 287 284 296 293 293 284
254 256 256 255 249 221 231 320 298 261 272 273 273 276 279 283 291 289 281 287 287 280 266 256 251 253 252 253 257 259 261 261 263 270 276 278 275 283 283 287 287 278 271
257 262 266 265 256 230 304 308 267 263 264 267 272 273 275 285 284 269 280 266 270 268 258 251 259 262 279 268 270 268 267 270 273 275 273 271 279 268 273 275 290 290 278
263 265 267 271 268 274 295 310 290 269 260 262 258 276 272 284 266 261 259 265 260 265 259 269 279 283 292 300 296 290 284 280 280 278 276 269 270 277 279 281 275 283 285
268 266 268 267 259 222 259 280 274 260 254 260 268 262 276 261 251 257 258 255 272 265 261 277 294 302 315 321 314 306 308 314 298 273 273 272 274 276 280 280 270 269 278
266 266 265 256 248 238 293 270 249 251 246 263 270 270 269 259 261 270 258 254 270 274 275 279 285 298 313 306 300 308 315 316 310 285 271 271 274 275 274 285 281 276 269
270 276 273 271 251 261 257 255 226 228 246 260 268 273 267 265 262 255 276 274 278 285 287 283 282 291 290 299 297 295 293 299 303 300 279 274 273 274 271 279 291 281 268
283 286 276 273 260 239 246 220 232 241 259 270 268 268 260 256 263 256 269 281 286 288 290 287 279 287 287 291 291 295 289 295 295 299 284 277 279 280 271 277 287 285 279
288 273 270 258 247 240 222 235 243 262 265 263 267 268 266 261 262 267 275 284 290 293 293 294 294 290 291 288 289 288 293 294 298 301 290 279 277 277 275 280 283 292 277
281 264 253 238 224 215 223 232 256 264 269 272 272 272 268 269 271 271 272 285 293 293 293 293 296 295 294 290 286 290 290 292 302 302 290 279 275 277 277 281 281 290 275
265 236 222 215 206 211 230 251 264 270 272 274 279 272 273 274 273 275 274 282 285 289 290 296 297 299 296 289 284 283 289 291 301 297 292 277 273 270 273 280 282 284 285
239 204 203 189 188 225 250 263 263 270 277 284 284 282 284 284 279 277 279 286 288 289 287 287 297 296 286 286 289 285 292 299 297 291 290 276 272 266 272 276 276 279 283
207 169 168 178 212 245 254 266 275 280 284 288 287 288 288 284 281 281 283 289 289 281 278 284 293 294 280 297 287 289 298 297 290 295 285 280 277 276 276 277 277 274 269
145 142 178 160 199 239 264 275 283 285 289 289 295 290 287 290 285 284 278 277 280 283 290 289 290 283 284 286 283 289 297 290 291 282 283 285 289 292 285 284 281 280 279
125 138 161 156 193 255 280 288 297 298 299 293 291 293 292 293 292 290 288 289 292 290 288 290 291 292 283 280 293 301 300 276 291 288 298 298 291 294 292 278 278 285 279
127 139 139 165 276 294 295 298 301 300 301 297 294 294 296 300 298 296 296 298 297 289 293 291 291 293 292 297 293 295 279 293 288 305 311 299 296 293 286 292 282 302 286
154 143 194 289 306 310 298 301 299 302 302 299 301 302 306 303 300 298 298 293 292 292 294 295 291 293 293 292 274 277 299 290 302 297 310 311 295 295 281 296 304 301 284
204 217 278 299 310 302 312 313 310 305 304 308 311 311 311 310 302 300 299 299 301 303 301 300 298 291 292 272 280 276 295 325 307 305 320 322 296 280 287 303 305 294 305
288 304 310 312 320 313 323 322 316 313 315 319 317 314 313 310 310 315 324 326 323 320 311 299 297 303 308 278 276 279 278 274 293 306 318 315 272 318 315 302 301 296 317
299 315 325 314 318 319 319 319 320 322 320 319 320 322 324 331 330 325 323 317 318 316 313 301 297 301 295 291 290 284 270 269 283 309 310 301 297 322 328 267 355 352 331
310 313 311 321 322 320 325 324 326 324 321 324 333 342 345 348 353 344 334 319 321 321 321 318 309 307 306 293 302 270 251 244 286 309 282 315 327 357 347 139 352 345 343
303 310 322 324 332 334 327 326 327 331 337 338 347 347 336 337 340 344 344 336 332 332 338 338 358 351 348 305 25 127 153 205 303 309 312 343 319 4 1 14 351 341 342
Wind_Speed_850mb
41 37 34 32 31 31 32 33 35 36 37 37 35 35 37 39 41 44 48 51 51 49 46 40 33 32 42 32 32 34 36 34 34 25 19 24 28 34 32 31 29 27 29
45 41 37 32 27 27 33 37 38 40 43 40 38 38 39 40 44 46 50 52 48 42 39 38 35 31 36 34 31 37 39 37 34 30 25 29 26 35 31 33 31 32 36
45 41 39 37 31 19 31 37 39 41 43 40 39 40 42 43 44 48 51 50 43 34 26 26 27 28 30 36 35 41 43 37 39 38 33 32 31 34 37 41 44 42 44
44 43 47 43 42 47 58 42 26 42 49 45 44 41 44 44 45 49 47 43 37 27 22 26 33 30 32 31 36 39 40 40 39 35 30 33 35 37 42 51 41 45 48
50 53 57 58 54 51 43 29 63 55 50 50 46 46 43 44 46 44 41 34 29 27 19 22 26 31 35 39 40 41 38 36 35 27 29 29 34 49 46 47 46 51 51
61 63 66 64 56 45 34 31 32 52 61 50 48 44 44 45 43 36 27 28 24 22 23 24 26 28 33 33 36 40 43 41 38 38 35 34 45 46 40 49 51 57 52
68 72 70 62 51 41 31 37 46 55 52 52 46 44 42 40 30 25 26 20 21 22 21 20 15 21 20 35 39 41 44 47 42 37 37 45 46 52 51 39 46 49 46
68 73 75 68 58 59 17 19 47 44 58 47 36 34 19 20 28 28 22 19 20 22 19 17 19 29 31 32 39 51 56 58 54 43 39 38 42 44 47 43 40 51 52
66 71 69 62 55 44 20 27 50 50 45 37 36 27 15 14 12 23 22 16 18 16 19 22 24 25 31 33 32 35 38 39 42 44 43 42 41 43 46 50 54 53 49
58 63 67 59 56 45 30 60 41 45 35 35 38 37 36 30 15 15 17 18 20 20 23 25 27 31 38 34 35 39 41 46 42 35 44 47 46 47 43 41 47 52 51
50 62 63 54 56 58 55 46 46 30 30 33 31 34 32 29 27 25 26 22 23 26 29 35 33 37 36 41 38 41 46 41 46 44 47 52 57 53 43 42 46 47 55
58 71 76 70 53 42 27 22 21 26 28 28 30 28 23 16 19 23 26 30 35 36 33 36 37 37 37 40 42 47 48 46 45 45 48 53 54 52 42 45 44 47 50
75 78 64 47 34 30 17 19 24 25 27 26 23 22 21 21 22 26 30 36 40 38 37 40 40 39 44 42 43 41 44 47 45 48 44 46 48 48 42 42 39 43 45
47 39 34 31 28 21 21 22 25 25 23 21 20 21 21 22 25 27 33 38 47 48 41 46 45 46 41 39 39 45 36 45 47 48 46 45 45 45 45 45 43 40 44
34 28 26 26 23 22 19 21 23 23 23 24 24 28 32 31 32 34 34 39 45 48 53 48 44 41 37 37 40 40 39 43 59 50 48 43 43 42 44 41 44 41 40
28 29 28 24 15 17 19 21 21 23 27 27 30 34 33 35 35 38 43 46 50 55 59 49 51 48 42 38 42 41 42 55 45 48 43 40 40 43 49 49 45 47 43
20 18 20 9 11 17 19 19 19 22 25 26 29 34 34 32 38 39 43 50 57 53 55 57 55 51 42 49 42 43 47 41 43 38 35 33 37 43 50 53 50 55 50
3 8 8 9 11 12 14 17 20 23 25 26 25 28 31 30 40 42 47 56 55 61 67 68 73 57 56 50 49 54 47 42 42 28 40 35 34 41 46 44 41 39 37
7 9 9 7 6 8 14 19 19 19 17 22 27 33 41 47 56 57 62 64 66 65 59 65 64 62 56 55 60 69 42 30 31 29 35 34 35 33 31 30 30 33 30
9 10 7 3 4 11 16 17 17 22 27 32 39 42 44 47 48 48 51 55 45 50 58 64 67 72 69 60 53 39 26 26 25 25 29 30 29 29 25 24 28 31 25
7 7 2 5 9 15 16 16 24 31 36 39 39 37 44 48 48 52 53 50 60 57 53 47 44 42 41 40 32 23 29 28 28 28 27 25 22 20 19 20 22 14 12
5 2 6 11 15 15 17 24 32 35 36 37 41 47 54 56 59 57 58 53 43 41 41 40 39 39 31 26 25 22 24 19 23 20 31 24 16 13 12 15 18 12 13
6 7 12 14 14 21 26 33 36 38 40 45 52 57 55 48 52 43 35 33 31 34 29 30 30 27 27 34 33 35 32 25 21 19 33 15 9 11 12 15 14 9 13
10 14 11 16 21 27 33 37 38 41 48 54 58 53 43 38 31 37 36 34 30 29 28 26 25 30 30 28 28 27 24 22 19 24 17 11 8 12 7 10 14 8 12
15 9 14 20 25 29 34 37 42 50 54 52 40 33 30 28 34 38 34 31 32 27 26 21 24 25 22 16 17 17 16 12 11 14 10 6 10 13 3 6 13 17 20
10 14 19 22 25 31 39 48 55 49 40 39 32 22 29 32 36 34 30 28 31 28 26 23 13 15 10 7 6 2 8 4 8 7 3 7 10 20 13 10 14 17 27
Wind_Direction_850mb
249 249 250 246 242 252 262 266 269 274 277 276 277 277 283 291 297 301 302 303 304 300 293 282 268 260 258 268 269 270 274 281 292 292 304 307 310 329 322 327 321 310 288
252 253 251 246 246 262 271 275 275 278 277 272 271 275 283 290 297 299 301 303 303 297 289 280 269 255 252 260 266 265 269 273 284 286 285 297 287 322 314 305 300 307 314
251 251 247 242 245 251 287 278 279 280 279 265 271 279 284 290 292 297 303 304 305 307 294 270 248 253 246 258 263 263 265 271 279 282 284 293 294 305 297 307 297 297 299
251 249 245 237 248 258 258 283 280 296 277 270 273 279 282 288 293 300 300 299 302 306 301 262 255 254 239 250 258 268 276 276 282 281 289 289 292 286 293 296 296 295 293
253 253 250 244 235 243 247 263 293 244 278 275 275 277 283 286 292 295 293 292 296 295 279 261 253 248 247 250 258 265 269 276 274 264 266 272 282 287 284 296 293 293 284
254 256 256 255 249 221 231 320 298 261 272 273 273 276 279 283 291 289 281 287 287 280 266 256 251 253 252 253 257 259 261 261 263 270 276 278 275 283 283 287 287 278 271
257 262 266 265 256 230 304 308 267 263 264 267 272 273 275 285 284 269 280 266 270 268 258 251 259 262 279 268 270 268 267 270 273 275 273 271 279 268 273 275 290 290 278
263 265 267 271 268 274 295 310 290 269 260 262 258 276 272 284 266 261 259 265 260 265 259 269 279 283 292 300 296 290 284 280 280 278 276 269 270 277 279 281 275 283 285
268 266 268 267 259 222 259 280 274 260 254 260 268 262 276 261 251 257 258 255 272 265 261 277 294 302 315 321 314 306 308 314 298 273 273 272 274 276 280 280 270 269 278
266 266 265 256 248 238 293 270 249 251 246 263 270 270 269 259 261 270 258 254 270 274 275 279 285 298 313 306 300 308 315 316 310 285 271 271 274 275 274 285 281 276 269
270 276 273 271 251 261 257 255 226 228 246 260 268 273 267 265 262 255 276 274 278 285 287 283 282 291 290 299 297 295 293 299 303 300 279 274 273 274 271 279 291 281 268
283 286 276 273 260 239 246 220 232 241 259 270 268 268 260 256 263 256 269 281 286 288 290 287 279 287 287 291 291 295 289 295 295 299 284 277 279 280 271 277 287 285 279
288 273 270 258 247 240 222 235 243 262 265 263 267 268 266 261 262 267 275 284 290 293 293 294 294 290 291 288 289 288 293 294 298 301 290 279 277 277 275 280 283 292 277
281 264 253 238 224 215 223 232 256 264 269 272 272 272 268 269 271 271 272 285 293 293 293 293 296 295 294 290 286 290 290 292 302 302 290 279 275 277 277 281 281 290 275
265 236 222 215 206 211 230 251 264 270 272 274 279 272 273 274 273 275 274 282 285 289 290 296 297 299 296 289 284 283 289 291 301 297 292 277 273 270 273 280 282 284 285
239 204 203 189 188 225 250 263 263 270 277 284 284 282 284 284 279 277 279 286 288 289 287 287 297 296 286 286 289 285 292 299 297 291 290 276 272 266 272 276 276 279 283
207 169 168 178 212 245 254 266 275 280 284 288 287 288 288 284 281 281 283 289 289 281 278 284 293 294 280 297 287 289 298 297 290 295 285 280 277 276 276 277 277 274 269
145 142 178 160 199 239 264 275 283 285 289 289 295 290 287 290 285 284 278 277 280 283 290 289 290 283 284 286 283 289 297 290 291 282 283 285 289 292 285 284 281 280 279
125 138 161 156 193 255 280 288 297 298 299 293 291 293 292 293 292 290 288 289 292 290 288 290 291 292 283 280 293 301 300 276 291 288 298 298 291 294 292 278 278 285 279
127 139 139 165 276 294 295 298 301 300 301 297 294 294 296 300 298 296 296 298 297 289 293 291 291 293 292 297 293 295 279 293 288 305 311 299 296 293 286 292 282 302 286
154 143 194 289 306 310 298 301 299 302 302 299 301 302 306 303 300 298 298 293 292 292 294 295 291 293 293 292 274 277 299 290 302 297 310 311 295 295 281 296 304 301 284
204 217 278 299 310 302 312 313 310 305 304 308 311 311 311 310 302 300 299 299 301 303 301 300 298 291 292 272 280 276 295 325 307 305 320 322 296 280 287 303 305 294 305
288 304 310 312 320 313 323 322 316 313 315 319 317 314 313 310 310 315 324 326 323 320 311 299 297 303 308 278 276 279 278 274 293 306 318 315 272 318 315 302 301 296 317
299 315 325 314 318 319 319 319 320 322 320 319 320 322 324 331 330 325 323 317 318 316 313 301 297 301 295 291 290 284 270 269 283 309 310 301 297 322 328 267 355 352 331
310 313 311 321 322 320 325 324 326 324 321 324 333 342 345 348 353 344 334 319 321 321 321 318 309 307 306 293 302 270 251 244 286 309 282 315 327 357 347 139 352 345 343
303 310 322 324 332 334 327 326 327 331 337 338 347 347 336 337 340 344 344 336 332 332 338 338 358 351 348 305 25 127 153 205 303 309 312 343 319 4 1 14 351 341 342